Theta_e
309 309 308 309 307 306 307 304 308 321 327 325 322 322 326 331 329 329 330 330 335 336 341 344 344 347 349 351 352 353 352 350 346 348 347 349 350 353 356 361 359 361 361 361
307 307 309 307 306 305 304 303 316 322 326 324 322 321 326 330 329 330 329 329 332 335 338 342 344 347 348 350 352 352 352 351 349 348 349 351 353 354 356 358 360 360 360 360
307 308 306 305 304 304 303 303 315 316 323 324 322 319 322 328 329 330 330 331 332 334 336 341 343 346 348 349 351 352 352 349 350 353 351 353 354 357 353 355 356 359 361 359
309 306 304 304 303 304 302 305 312 319 316 309 320 307 317 322 325 327 328 330 330 335 338 340 342 345 347 349 351 352 352 350 353 356 352 353 348 349 356 358 359 360 361 361
303 303 304 303 304 306 304 307 309 314 315 312 314 310 313 321 321 324 328 330 332 333 335 339 341 345 347 349 349 351 353 354 354 356 356 353 356 359 354 357 359 361 362 362
305 307 306 306 306 307 318 312 315 316 313 302 309 309 310 316 322 326 329 331 333 333 334 338 342 345 346 348 349 350 352 353 355 356 356 357 357 357 359 356 353 358 357 358
304 304 307 307 304 309 317 311 303 302 302 301 310 309 312 320 324 329 329 330 333 333 336 337 339 342 344 345 347 348 352 352 354 355 355 355 355 356 355 358 361 360 354 358
297 294 304 307 306 303 310 308 301 295 298 301 311 306 313 322 326 329 333 333 332 334 337 338 339 342 343 343 347 349 351 352 354 355 356 356 357 354 354 357 354 355 356 366
298 298 306 307 306 309 307 304 309 304 305 304 309 312 320 322 324 327 330 331 330 335 337 337 340 341 343 343 346 349 350 352 354 354 359 358 356 354 354 357 359 357 361 362
303 298 304 307 308 307 310 311 301 304 298 296 304 308 311 316 321 326 327 329 331 334 337 338 340 343 345 344 347 350 352 352 354 356 357 359 355 355 353 354 357 359 360 361
304 302 302 305 304 303 305 305 304 306 303 299 299 306 320 320 322 324 327 329 331 333 335 338 338 344 346 347 346 351 352 352 352 355 358 357 356 354 356 354 356 358 359 360
303 304 301 301 305 304 304 303 305 301 300 305 305 305 320 323 324 326 326 330 333 334 337 339 339 341 343 344 346 349 353 352 353 354 356 355 355 357 356 355 353 355 356 359
303 300 296 299 302 303 301 302 302 303 309 305 300 304 320 324 323 323 324 328 332 334 336 338 338 340 342 341 339 340 344 346 350 352 352 351 352 352 355 357 359 358 358 359
309 300 300 294 299 301 298 300 301 302 302 304 305 309 315 318 321 321 324 327 327 330 330 333 336 338 337 339 340 340 341 343 345 346 342 344 346 347 347 352 359 360 361 360
304 300 300 300 300 300 299 299 306 301 302 304 308 310 316 319 320 321 325 326 325 325 327 329 331 334 335 336 336 337 338 339 342 341 341 341 343 345 347 347 351 358 361 360
302 299 301 299 301 301 298 300 304 307 307 308 309 311 319 324 324 322 322 322 324 324 325 326 327 330 332 334 334 332 332 333 336 335 338 338 342 342 340 343 346 349 353 355
302 301 299 295 299 300 296 300 302 308 312 312 308 313 320 320 319 320 321 323 323 323 322 324 326 327 330 332 332 329 327 325 325 324 329 330 335 338 339 339 339 341 343 350
301 301 300 296 299 291 300 307 309 309 312 315 315 316 320 319 322 323 327 326 321 320 321 321 319 319 319 320 321 321 319 319 320 319 323 325 327 331 334 337 338 339 340 342
303 302 296 295 293 297 300 302 302 302 302 313 315 317 319 322 322 321 325 321 320 320 319 318 317 316 317 317 318 318 318 316 316 316 319 321 326 326 324 325 329 335 336 338
300 303 299 294 290 288 299 304 309 309 299 315 318 318 319 320 311 309 314 315 315 317 317 315 314 315 315 314 315 314 314 315 314 315 315 318 320 321 320 321 321 326 330 332
296 297 294 294 292 295 302 307 309 297 301 316 320 320 320 319 321 317 313 312 315 317 315 313 313 310 311 312 312 309 310 310 311 315 315 314 316 316 318 319 321 323 325 327
295 295 294 293 291 288 306 308 301 308 313 316 320 321 321 316 319 318 316 310 311 311 312 312 309 308 309 310 310 309 307 310 312 313 312 312 312 313 314 318 317 319 320 320
296 299 299 297 298 304 307 308 314 315 314 318 321 319 316 316 316 316 315 314 310 310 311 311 309 308 308 309 309 306 308 310 310 310 310 311 312 312 312 313 313 312 316 316
300 301 303 301 304 306 307 311 314 314 314 316 320 317 316 314 312 312 311 312 312 313 312 313 311 310 310 311 311 311 310 311 311 309 309 309 309 309 310 309 309 310 311 313
303 302 301 301 304 306 307 309 310 314 316 317 317 316 316 315 312 310 308 311 309 311 312 312 311 310 309 310 310 310 310 310 308 307 308 307 307 307 307 307 306 308 307 307
304 303 302 303 305 306 306 309 310 313 314 316 316 314 315 315 311 311 309 309 308 308 309 310 311 310 309 309 309 309 309 310 309 307 306 305 305 305 305 306 305 300 300 298
Wind_Speed
4 7 12 9 4 5 7 6 5 4 9 9 4 10 16 18 19 13 12 12 14 15 12 12 12 12 12 11 11 11 10 9 7 4 4 3 3 4 3 2 4 4 3 3
6 11 6 4 6 6 4 5 5 6 5 2 8 12 14 17 19 17 12 11 10 11 11 12 14 13 13 13 12 11 10 9 9 7 4 2 3 3 3 3 4 4 3 3
11 3 7 8 6 7 4 4 6 3 7 3 12 9 12 13 10 11 9 6 7 9 14 14 15 15 14 13 13 12 10 10 10 9 5 3 4 2 4 5 5 5 5 5
8 5 10 6 6 5 8 7 7 10 7 4 2 5 8 14 14 17 13 10 10 5 11 14 15 16 15 13 12 12 11 10 9 9 8 8 7 5 5 5 5 5 5 5
5 10 9 6 6 6 1 3 10 7 4 3 6 3 6 14 16 20 20 18 10 11 7 14 17 14 14 12 12 12 11 10 10 10 8 8 7 4 4 4 6 6 5 5
5 1 3 3 3 10 9 11 9 6 2 5 6 7 7 11 19 20 22 21 16 11 5 8 11 11 12 11 11 11 11 11 10 10 9 9 8 7 4 5 6 5 4 5
6 7 3 3 6 7 4 11 5 4 5 3 1 7 3 11 8 18 23 24 20 10 7 8 13 12 11 12 12 11 11 11 10 10 8 8 6 6 5 6 5 6 5 4
8 8 8 7 10 7 15 12 7 13 6 6 5 7 2 3 6 9 19 22 18 16 8 6 12 12 12 12 13 13 12 11 11 10 8 6 6 4 4 6 5 6 5 4
5 4 3 6 4 10 8 9 4 4 1 5 3 3 5 3 5 10 16 19 19 17 10 9 9 10 11 11 13 13 12 11 11 11 8 7 6 5 4 4 5 5 5 4
6 3 2 3 4 2 7 6 8 4 8 8 4 4 4 6 7 11 16 21 21 18 13 10 9 9 7 6 10 12 13 13 13 11 9 6 6 5 4 4 5 5 5 6
3 3 4 3 2 2 5 5 2 3 3 9 4 4 2 7 9 11 14 16 18 19 16 11 7 7 7 7 8 11 11 12 13 12 9 7 7 7 6 4 6 6 4 6
2 1 1 4 3 2 1 1 5 7 7 1 4 3 3 4 9 9 9 9 12 14 13 11 7 5 5 4 5 9 9 10 11 11 8 5 3 4 6 5 5 7 6 5
4 1 3 4 5 3 3 3 1 1 1 8 9 3 1 9 11 8 9 10 10 9 8 6 4 2 6 6 7 7 8 7 8 10 9 7 5 4 4 6 6 6 6 5
2 3 4 6 3 1 0 4 2 6 6 6 6 6 9 13 14 12 12 10 8 6 5 3 4 4 5 9 11 12 12 9 9 11 9 7 5 4 2 2 6 7 7 6
1 2 1 5 5 3 5 6 3 6 2 8 7 11 15 18 17 14 11 9 9 6 5 3 1 1 6 6 9 11 12 10 8 9 10 7 6 5 4 3 0 4 6 6
1 3 1 4 2 3 2 6 4 5 3 6 3 7 5 15 15 13 12 12 10 8 7 7 5 3 6 7 4 10 9 7 4 9 9 7 8 7 7 5 4 4 4 5
0 4 3 3 4 4 6 6 9 6 4 5 3 4 9 14 17 15 12 12 11 9 8 7 8 6 5 7 9 9 12 8 9 7 8 5 8 6 7 5 7 6 4 5
4 4 1 2 1 9 5 1 4 5 3 3 5 1 10 12 11 12 14 15 13 11 10 8 8 9 9 11 12 12 12 7 10 8 8 6 8 5 6 6 8 7 5 5
2 4 3 3 4 4 4 2 4 4 5 4 3 8 14 16 15 10 11 12 14 12 11 10 9 9 11 11 11 14 12 8 10 11 8 6 7 7 5 7 6 5 5 5
6 6 3 3 3 5 4 3 8 1 5 1 4 11 17 17 8 4 11 14 13 13 12 12 10 8 10 10 9 11 9 9 8 8 5 5 6 7 8 5 5 3 4 5
2 3 2 3 3 4 0 8 5 6 3 4 6 12 15 11 1 13 13 12 11 11 14 12 10 8 7 5 9 10 8 8 7 5 7 6 7 8 7 7 6 6 6 8
3 4 3 3 3 5 6 2 4 5 3 6 5 5 9 8 16 18 17 13 14 15 15 12 11 8 7 7 8 10 9 7 7 6 7 7 7 6 6 7 7 8 7 7
3 2 0 4 1 2 3 3 5 7 6 1 7 10 13 14 14 13 15 15 12 13 11 11 10 11 7 6 6 10 6 7 8 8 8 7 7 7 7 7 6 5 6 5
2 1 1 3 3 3 3 2 4 5 4 3 8 13 15 15 16 14 10 12 12 12 12 12 12 11 9 8 9 9 8 8 8 9 8 7 7 7 7 6 6 5 5 5
0 3 4 2 3 3 2 4 7 6 5 8 8 10 13 16 14 15 12 9 7 9 9 10 10 11 11 8 8 7 7 7 9 8 7 6 6 6 7 8 6 7 8 7
5 5 4 2 2 1 3 5 5 4 5 5 10 11 10 14 19 19 16 6 6 6 8 9 9 10 10 9 9 8 6 6 8 8 5 5 5 4 4 5 7 11 10 11
Wind_Direction
152 203 201 179 181 122 121 118 130 119 157 159 162 142 158 162 176 195 186 195 206 209 199 189 190 189 182 180 182 192 192 178 175 164 178 191 187 165 156 145 154 142 144 132
160 214 197 163 150 146 134 127 97 106 137 142 160 156 161 170 185 180 181 198 203 203 199 196 190 190 190 182 189 188 198 194 195 184 181 187 182 186 174 166 173 156 171 159
183 177 156 185 170 175 179 175 158 110 150 159 157 140 167 188 178 157 144 185 158 227 205 199 198 193 196 185 188 191 193 201 197 181 165 144 154 143 177 184 178 188 186 179
181 130 163 177 197 204 207 202 154 144 182 153 243 154 205 182 191 181 173 178 186 189 214 205 206 199 196 189 186 193 186 195 201 183 179 187 191 187 209 189 180 183 193 181
141 167 176 195 213 195 235 182 181 160 119 199 179 227 129 190 204 204 188 187 179 193 203 202 210 207 200 185 184 191 192 193 203 201 199 193 185 194 189 179 183 177 175 187
129 89 214 196 180 197 140 120 92 90 129 239 177 227 169 185 215 205 205 196 184 184 186 210 201 197 199 190 186 189 193 201 201 210 201 209 199 180 172 180 182 175 173 182
191 234 240 201 196 156 208 183 151 162 191 232 163 192 289 187 214 211 201 199 191 177 161 193 183 186 197 190 191 189 192 202 199 209 206 206 211 205 211 187 183 175 182 185
190 198 201 171 217 189 205 231 230 207 194 191 137 219 164 241 252 238 202 192 180 177 158 173 194 189 191 189 193 189 196 204 198 199 213 214 205 211 216 205 197 193 198 180
177 212 162 222 179 191 176 219 291 122 66 215 161 218 211 193 210 193 191 181 184 176 148 155 170 179 184 175 193 194 192 201 204 198 199 201 195 205 213 212 214 203 198 191
179 205 164 138 162 139 224 153 196 238 177 215 186 261 235 202 191 184 188 189 187 184 172 164 162 162 167 177 187 190 188 194 200 200 197 196 192 188 206 211 219 214 210 200
157 258 132 212 60 174 166 196 185 228 286 227 191 224 131 188 185 187 190 191 187 187 195 172 159 175 160 159 176 182 183 185 196 201 195 192 195 181 182 202 214 199 206 211
124 222 204 69 21 275 294 70 223 229 180 281 292 197 157 191 173 173 181 180 196 194 188 200 190 177 201 177 165 172 184 189 194 181 172 176 183 200 190 207 206 191 203 206
169 307 213 164 162 152 55 18 43 184 175 201 225 191 99 178 162 160 169 177 183 168 165 161 163 187 217 172 133 120 126 150 155 140 143 140 143 156 207 219 211 210 201 197
123 104 285 277 84 84 28 6 329 250 216 184 229 167 186 185 178 170 174 167 145 148 135 169 180 172 156 174 153 135 121 124 128 119 118 109 98 90 93 282 234 208 203 204
348 98 140 97 102 113 80 28 29 229 283 234 187 204 193 186 178 171 151 150 135 143 146 153 160 132 145 145 153 134 123 111 120 114 106 96 89 80 64 48 55 228 198 189
4 128 136 158 319 270 30 42 47 39 308 249 277 220 297 162 158 154 149 147 152 153 155 148 136 150 139 130 121 117 114 98 142 103 97 96 91 80 65 53 74 94 133 131
123 155 157 200 352 294 214 37 45 336 309 308 228 39 151 169 166 156 153 155 146 143 137 139 133 114 105 107 124 118 99 104 101 84 99 86 84 79 85 78 67 63 82 114
148 118 40 100 278 239 69 6 65 56 312 268 295 278 174 159 154 150 159 148 142 139 125 96 92 92 87 89 90 83 77 75 88 84 84 101 87 95 99 96 90 82 78 84
315 130 98 215 202 320 156 67 338 10 322 329 304 144 152 140 127 132 139 130 127 122 104 92 85 90 92 88 92 95 90 72 81 79 73 75 105 105 97 77 74 92 89 91
67 60 232 148 214 239 80 345 345 276 282 29 189 166 163 152 154 140 135 126 121 114 111 107 96 89 93 91 93 97 102 103 83 78 78 69 76 72 70 81 61 72 94 91
98 51 164 148 237 281 53 314 294 232 39 311 213 171 170 185 127 145 123 106 109 118 117 111 99 94 78 81 110 92 89 69 82 76 64 48 68 78 60 62 61 66 83 88
222 166 149 137 212 245 12 284 285 11 296 293 222 173 158 108 130 137 136 128 121 123 124 118 110 96 98 97 97 103 92 99 82 77 73 61 43 59 80 81 66 61 71 70
224 318 142 238 58 352 313 301 321 318 295 203 175 154 134 128 131 138 141 134 125 121 121 122 117 110 100 100 107 108 110 113 110 107 96 86 71 64 52 65 62 61 64 73
184 213 225 210 158 275 319 326 36 349 308 194 159 146 137 136 136 137 134 134 133 133 136 135 133 126 121 118 112 114 129 125 120 114 109 103 94 87 76 72 63 58 50 64
43 175 167 248 240 278 279 9 0 41 79 116 124 144 145 139 142 131 107 118 113 134 145 152 145 137 132 129 118 120 120 123 111 103 100 96 89 86 91 71 52 81 58 37
189 167 189 198 94 352 68 338 354 34 61 118 135 138 154 160 150 137 127 147 149 189 168 164 155 146 144 143 140 140 143 139 130 120 114 98 96 88 90 105 96 55 61 56